Погода в Таежном

Россия / Хабаровский край     48°36′09″N   135°35′33″E
темп.,
°C
ветер,
м/с
пор.,
м/с
влажн.,
%
обл.,
%
осадки,
мм/ч
давл.,
гПа
погр.,
м
15 апреля, чт
чт1501:00−3зюз5116635 0.0 1007388
04:00−4зюз611675 0.0 1008495
07:00−4з611635 0.0 1010566
10:000з711420 0.0 10111367
13:00+4з610325 0.0 10112063
16:00+7зсз611324 0.0 10112330
19:00+5зюз23466 0.0 101333
22:00+2вюв22553 0.0 101513
16 апреля, пт
пт1601:000в32625 0.0 101528
04:000в3565100 0.0 101576
07:00+1в2462100 0.0 1015100
10:00+6в3348100 0.0 1014287
13:00+10вюв3443100 0.0 1014600
16:00+14всв363388 0.0 10111348
19:00+9всв61066100 0.1 1011290
22:00+7всв2476100 0.3 101195
17 апреля, сб
сб1701:00+6ю245450 0.0 101150
04:00+5вюв1167100 0.1 101012
07:00+4всв368197 0.3 1010213
10:00+4юв1395100 1.8 1011372
13:00+4ю2397100 0.6 1012567
16:00+5ююз128874 0.7 1013353
19:00+6св22805 0.0 101393
22:00+3всв22925 0.0 101426
18 апреля, вс
вс1801:00+2ссв22913 0.0 101415
04:00+1ссв349445 0.0 101353
07:00+1ссв259546 0.0 1013117
10:00+8ссв46685 0.0 1012477
13:00+12ссв45510 0.0 1010908
16:00+14ссв564223 0.0 10081253
19:00+12ссв510510 0.0 1007526
22:00+9ссв5146241 0.0 1007353
19 апреля, пн
пн1901:00+7ссв6147131 0.0 1007389
04:00+6ссв6157996 0.0 1007404
07:00+6ссв81774100 0.0 1007623
10:00+9ссв1014586 0.0 1007962
13:00+11ссв11154794 0.0 10061376
16:00+12св10154597 0.0 10051710
19:00+10св71254100 0.0 10051140
22:00+7св71463100 0.0 1006674